Regional Weather Roundup
Issued by NWS

Home | Current Version | Previous Version | Text Only | Print | Product List | Glossary On
Versions: 1 2 3 4 5 6 7 8 9 10 11 12 13 14 15 16 17 18 19 20 21 22 23 24 25 26 27 28 29 30 31 32 33 34 35 36 37 38 39 40 41 42 43 44 45 46 47 48 49 50
000
ASUS43 KMPX 050201
RWRMN
WEATHER ROUNDUP FOR MINNESOTA
NATIONAL WEATHER SERVICE TWIN CITIES/CHANHASSEN MN
900 PM CDT SAT JUL 04 2015


NOTE: "FAIR" INDICATES FEW OR NO CLOUDS BELOW 12,000 FEET WITH NO
SIGNIFICANT WEATHER AND/OR OBSTRUCTIONS TO VISIBILITY. N/A MEANS
CURRENT SKY AND/OR WEATHER CONDITIONS ARE NOT AVAILABLE.

MNZ060>063-068>070-050300-
   Twin Cities Metro

CITY           SKY/WX    TMP DP  RH WIND       PRES   REMARKS
TWIN CITIES    CLEAR     79  63  57 S7        29.89S HAZE
ST PAUL        CLEAR     75  64  68 S6        29.88F
CRYSTAL        PTCLDY    79  63  57 S8        29.87S HAZE
LAKEVILLE      CLEAR     72  64  78 CALM      29.90S
EDEN PRAIRIE   CLEAR     76  64  66 S7        29.88S
SOUTH ST PAUL  CLEAR     77  63  61 S5        29.89S
LAKE ELMO      FAIR      75  66  73 S7        29.90S
$$
MNZ001>005-007-008-013>017-022>024-027-028-050300-
   Northwest Minnesota

CITY           SKY/WX    TMP DP  RH WIND       PRES   REMARKS
BEMIDJI        CLEAR     74  65  73 S3        29.84R HAZE
HALLOCK        CLOUDY    77  70  78 SE8       29.72S
ROSEAU         CLOUDY    73  68  83 S5        29.79R HAZE
WARROAD        CLOUDY    75  68  78 S3        29.80R HAZE
THIEF RVR FALL MOCLDY    75  66  73 S6        29.79S
CROOKSTON      MOCLDY    79  66  65 S10       29.76S
FOSSTON        CLEAR     72  64  78 S7        29.82R
DETROIT LAKES  CLEAR     77  63  61 S10       29.83R
MOORHEAD       CLEAR     79  66  65 S10       29.77S
PARK RAPIDS    PTCLDY    76  65  68 S7        29.84R
MAHNOMEN       FAIR      74  66  75 S5        29.81R
$$
MNZ006-009>011-018-025>026-050300-
   North Central Minnesota

CITY           SKY/WX    TMP DP  RH WIND       PRES   REMARKS
BAUDETTE       MOCLDY    74  63  68 S7        29.80R HAZE
FLAG ISLAND    CLOUDY    73  66  78 S9        29.77R HAZE
INTL FALLS     PTCLDY    67  60  78 CALM      29.84R
WASKISH        PTCLDY    73  66  78 CALM      29.83R HAZE
BIG FORK       CLEAR     70  63  78 CALM      29.86R HAZE
LONGVILLE      CLEAR     72  64  78 SE5       29.85R HAZE
GRAND RAPIDS   CLEAR     73  63  68 SE6       29.86R
CRANE LAKE     CLEAR     66  63  88 CALM      29.87R
ORR            CLEAR     70  59  68 CALM      29.85R
COOK           CLEAR     72  59  64 S3        29.87R
WALKER         FAIR      76  65  68 S5        29.83R HAZE
$$
MNZ012-019>021-037-050300-
   Northeast Minnesota

CITY           SKY/WX    TMP DP  RH WIND       PRES   REMARKS
DULUTH         PTCLDY    63  55  75 E12       29.89F
ELY            CLEAR     70  54  56 S9        29.90R
HIBBING        CLOUDY    71  61  70 SE7       29.87R
DULUTH HARBOR  CLEAR     63  57  82 NE12      29.90S
TWO HARBORS    CLEAR     66  57  72 NE5       29.88F
SILVER BAY     CLEAR     61  54  77 NE3       29.90S
GRAND MARAIS     N/A     58  51  78 NE3       29.91F
G MARAIS ARPRT PTCLDY    57  48  72 E5        29.96S
$$
MNZ029>031-032-039>041-046>048-054>057-064-050300-
   West Central Minnesota

CITY           SKY/WX    TMP DP  RH WIND       PRES   REMARKS
FERGUS FALLS   CLEAR     77  64  65 S12       29.80R
WHEATON        CLEAR     75  63  64 SE10G16   29.80S
MORRIS         CLEAR     75  64  69 S8        29.82S HAZE
ALEXANDRIA     CLEAR     76  65  68 S9        29.87R
ELBOW LAKE     FAIR      75  65  71 S12       29.82R
WADENA         CLEAR     73  64  73 S6        29.84R
GLENWOOD       CLEAR     73  64  73 S7        29.87R
APPLETON       CLEAR     77  64  65 S5        29.82F
BENSON         CLEAR     73  64  73 S5        29.84S
ORTONVILLE     CLEAR     75  64  69 SE6       29.81F
MADISON        CLEAR     73  63  68 SE7       29.82F
WILLMAR        FAIR      75  66  73 S6        29.88R HAZE
$$
MNZ033>034-036-042>043-049>051-058-059-050300-
   Central Minnesota

CITY           SKY/WX    TMP DP  RH WIND       PRES   REMARKS
ST CLOUD       CLEAR     76  65  68 S9        29.86S HAZE
SAUK CENTRE    FAIR      73  66  80 S6        29.86R
PAYNESVILLE    CLEAR     73  64  73 SE6       29.87S
AITKIN         CLEAR     73  64  73 SE3       29.84R HAZE
PINE RIVER       N/A     75  64  69 S5        29.88R HAZE
BRAINERD       CLOUDY    75  65  70 S5        29.85R HAZE
STAPLES        CLEAR     73  64  73 S7        29.85R
LONG PRAIRIE   FAIR      73  64  73 S7        29.87R
LITTLE FALLS   CLEAR     77  63  61 S7        29.86R
LITCHFIELD     CLEAR     77  68  73 SE5       29.88S
BUFFALO        CLEAR     76  64  66 S5        29.89S
MAPLE LAKE     CLEAR     75  67  76 CALM      29.88S
$$
MNZ037-044-045-052-053-050300-
   East Central Minnesota

CITY           SKY/WX    TMP DP  RH WIND       PRES   REMARKS
PRINCETON      CLEAR     77  66  69 CALM      29.87S
MORA           PTCLDY    75  64  69 S3        29.88S HAZE
CAMBRIDGE      CLEAR     81  64  57 CALM      29.85S
RUSH CITY      MOCLDY    75  65  71 SE5       29.87S
MOOSE LAKE     CLEAR     68  61  77 NE3       29.86R
HINCKLEY       FAIR      75  66  73 SE3       29.87S HAZE
CLOQUET        CLEAR     63  55  77 E6        29.89S
MCGREGOR       CLEAR     72  64  78 SE5       29.87R
$$
MNZ071>073-080-081-089-090-097-098-050300-
   Southwest Minnesota

CITY           SKY/WX    TMP DP  RH WIND       PRES   REMARKS
MONTEVIDEO     CLEAR     75  63  64 S6        29.84F HAZE
GRANITE FALLS  PTCLDY    72  64  77 SE6       29.87S
CANBY          CLEAR     74  64  69 SE5       29.85F
MARSHALL       CLEAR     75  61  60 S8          N/A
REDWOOD FALLS  CLEAR     75  63  66 S10       29.87R HAZE
OLIVIA         CLEAR     72  61  68 S5        29.86F
PIPESTONE      CLEAR     72  63  73 S6        29.88F
WINDOM         CLEAR     73  61  64 S5        29.90S
WORTHINGTON    CLEAR     72  61  68 S8        29.91R
JACKSON        CLEAR     72  61  68 S7        29.92S
TRACY          CLEAR     75  64  67 S5        29.88S
SLAYTON        CLEAR     73  62  69 CALM      29.91R
$$
MNZ065>067-074>077-082>085-091>093-050300-
   South Central Minnesota

CITY           SKY/WX    TMP DP  RH WIND       PRES   REMARKS
MANKATO        PTCLDY    73  61  64 S7        29.90S
NEW ULM        PTCLDY    73  64  73 S6        29.89R
ST JAMES       CLEAR     73  63  68 SE6       29.91S
FAIRMONT       PTCLDY    70  57  64 S6        29.91S
GLENCOE        PTCLDY    76  66  71 S6        29.88F
FARIBAULT      CLEAR     73  63  68 S3        29.92S
OWATONNA       CLEAR     73  61  64 S6        29.93S
WASECA         PTCLDY    72  63  73 S6        29.93S
ALBERT LEA     PTCLDY    73  57  56 S5        29.93F
$$
MNZ078>079-086>088-094>096-050300-
   Southeast Minnesota

CITY           SKY/WX    TMP DP  RH WIND       PRES   REMARKS
ROCHESTER      CLEAR     69  62  78 S8        29.95F
RED WING       CLEAR     77  64  65 SW5       29.90S
DODGE CENTER   CLEAR     70  63  78 S7        29.95R
WINONA         CLEAR     75  63  64 CALM      29.93S
AUSTIN         CLEAR     72  61  68 S3        29.94S
PRESTON        CLEAR     69  62  77 S6        29.96F
$$
ABBREVIATIONS USED IN REMARKS
   TC - TEMPERATURES IN CELSIUS
  WCI - WIND CHILL INDEX
   HX - HEAT INDEX
  VSB - VISIBILITY
$$



USA.gov is the U.S. government's official web portal to all federal, state and local government web resources and services.